EW9945 Weather Reports


time (UTC)temp
C
wind
direction
speed
KPH
gust
KPH
rain 1hr
cm
rain 24hr
cm
rain mn
cm
humidity
%
barometer
mb
20260504193037 22 299 11.3 29.0 0.00 0.00 0.00 27 1006.3
20260504191536 21 271 4.8 22.5 0.00 0.00 0.00 30 1006.5
20260504190030 21 282 8.0 22.5 0.00 0.00 0.00 32 1006.6
20260504184542 21 101 1.6 24.1 0.00 0.00 0.00 33 1007.1
20260504183027 21 333 3.2 22.5 0.00 0.00 0.00 31 1007.0
20260504181524 21 329 1.6 24.1 0.00 0.00 0.00 33 1007.3
20260504180025 20 269 3.2 29.0 0.00 0.00 0.00 35 1007.5
20260504174519 19 284 3.2 20.9 0.00 0.00 0.00 39 1007.6
20260504173017 18 264 1.6 14.5 0.00 0.00 0.00 40 1007.8
20260504171515 18 348 3.2 17.7 0.00 0.00 0.00 40 1008.1
20260504081503 5 165 0.0 1.6 0.00 0.00 0.00 65 1011.5
20260504050001 6 167 0.0 0.0 0.00 0.00 0.00 60 1012.1
20260504044501 6 166 0.0 0.0 0.00 0.00 0.00 60 1012.3
20260504043001 6 166 0.0 0.0 0.00 0.00 0.00 60 1012.3
20260504041601 6 166 0.0 0.0 0.00 0.00 0.00 63 1012.3
20260504040132 6 166 0.0 0.0 0.00 0.00 0.00 62 1012.1
20260504034603 6 166 0.0 0.0 0.00 0.00 0.00 63 1012.2
20260504033058 6 166 0.0 0.0 0.00 0.00 0.00 60 1012.2
20260504031621 7 166 0.0 0.0 0.00 0.00 0.00 56 1012.3
20260504030059 7 166 0.0 0.0 0.00 0.00 0.00 55 1012.2
20260504024605 7 166 0.0 0.0 0.00 0.00 0.00 54 1012.3
20260504023059 8 166 0.0 0.0 0.00 0.00 0.00 52 1012.3
20260504021559 8 166 0.0 0.0 0.00 0.00 0.00 52 1012.4
20260504020110 10 166 0.0 0.0 0.00 0.00 0.00 48 1012.3
20260504014558 10 167 0.0 0.0 0.00 0.00 0.00 46 1012.1
20260504013058 10 167 0.0 0.0 0.00 0.00 0.00 46 1011.9
20260504011556 10 216 0.0 0.0 0.00 0.00 0.00 46 1012.0
20260504010057 10 222 0.0 0.0 0.00 0.00 0.00 45 1012.1
20260504004556 10 246 0.0 0.0 0.00 0.00 0.00 45 1011.9
20260504003056 11 246 0.0 0.0 0.00 0.00 0.00 43 1011.8
20260504001559 11 246 0.0 1.6 0.00 0.00 0.00 42 1011.8
20260504000056 11 360 0.0 6.4 0.00 0.00 0.00 41 1011.7
20260503234624 12 299 8.0 17.7 0.00 0.00 0.00 39 1011.6
20260503233055 12 279 1.6 16.1 0.00 0.00 0.00 38 1011.4
20260503231555 13 299 4.8 14.5 0.00 0.00 0.00 37 1011.5
20260503230056 12 304 6.4 25.7 0.00 0.00 0.00 37 1011.4
20260503224554 13 304 12.9 29.0 0.00 0.00 0.00 35 1011.3
20260503223054 12 326 1.6 17.7 0.00 0.00 0.00 38 1011.4
20260503221559 12 309 8.0 25.7 0.00 0.00 0.00 38 1011.3
20260503220055 12 295 9.7 25.7 0.00 0.00 0.00 38 1011.5
20260503214554 13 302 6.4 29.0 0.00 0.00 0.00 37 1011.4
20260503213056 12 302 3.2 24.1 0.00 0.00 0.00 38 1011.3
20260503211553 12 324 4.8 19.3 0.00 0.00 0.00 38 1011.3
20260503210052 13 317 6.4 22.5 0.00 0.00 0.00 36 1011.4
20260503204555 12 306 12.9 32.2 0.00 0.00 0.00 37 1011.4
20260503203056 12 312 14.5 24.1 0.00 0.00 0.00 37 1011.5
20260503201552 12 322 11.3 22.5 0.00 0.00 0.00 38 1011.4
20260503200054 12 297 16.1 27.4 0.00 0.00 0.00 38 1011.6
20260503194555 12 299 6.4 20.9 0.00 0.00 0.00 41 1012.0